FW9813 Weather Reports


Display with metric or nautical units.
time (UTC)temp
F
wind
direction
speed
MPH
gust
MPH
rain 1hr
in
rain 24hr
in
rain mn
in
humidity
%
barometer
mb
20221206113028 12 46 2.0 5.0 0.00 0.00 0.00 76 1017.4
20221206111556 12 5 1.0 4.0 0.00 0.00 0.00 76 1017.6
20221206110032 12 36 1.0 4.0 0.00 0.00 0.00 76 1017.6
20221206104531 12 26 0.0 4.0 0.00 0.00 0.00 76 1017.9
20221206103050 13 35 1.0 3.0 0.00 0.00 0.00 77 1017.8
20221206101526 13 23 1.0 3.0 0.00 0.00 0.00 78 1017.9
20221206100033 11 69 1.0 3.0 0.00 0.00 0.00 82 1017.5
20221206094530 10 0 0.0 1.0 0.00 0.00 0.00 84 1018.1
20221206093030 10 0 0.0 1.0 0.00 0.00 0.00 83 1018.6
20221206091527 11 265 0.0 1.0 0.00 0.00 0.00 83 1018.3
20221206090043 11 0 0.0 0.0 0.00 0.00 0.00 82 1018.2
20221206084537 11 0 0.0 0.0 0.00 0.00 0.00 83 1018.1
20221206083044 11 0 0.0 0.0 0.00 0.00 0.00 83 1018.4
20221206081526 11 0 0.0 0.0 0.00 0.00 0.00 82 1018.6
20221206080030 11 0 0.0 1.0 0.00 0.00 0.00 81 1018.7
20221206074525 12 0 0.0 0.0 0.00 0.00 0.00 79 1018.3
20221206073031 12 0 0.0 0.0 0.00 0.00 0.00 77 1018.1
20221206071533 13 0 0.0 0.0 0.00 0.00 0.00 76 1018.2
20221206070031 14 0 0.0 1.0 0.00 0.00 0.00 75 1018.2
20221206064527 14 0 0.0 2.0 0.00 0.00 0.00 76 1018.4
20221206063030 14 0 0.0 3.0 0.00 0.00 0.00 77 1018.3
20221206061530 14 0 0.0 2.0 0.00 0.00 0.00 76 1017.9
20221206060029 14 0 0.0 1.0 0.00 0.00 0.00 75 1017.9
20221206054526 14 0 0.0 2.0 0.00 0.00 0.00 74 1017.7
20221206053032 14 289 1.0 3.0 0.00 0.00 0.00 74 1017.7
20221206051532 15 267 0.0 3.0 0.00 0.00 0.00 74 1017.7
20221206050030 15 248 2.0 8.0 0.00 0.00 0.00 73 1017.6
20221206044534 15 286 2.0 8.0 0.00 0.00 0.00 73 1017.6
20221206043041 15 270 1.0 4.0 0.00 0.00 0.00 73 1017.3
20221206041527 15 0 1.0 6.0 0.00 0.00 0.00 73 1017.1
20221206040042 16 265 1.0 4.0 0.00 0.00 0.00 73 1017.4
20221206034538 16 278 0.0 6.0 0.00 0.00 0.00 72 1017.4
20221206033030 16 296 2.0 4.0 0.00 0.00 0.00 71 1017.5
20221206031529 16 280 0.0 4.0 0.00 0.00 0.00 71 1017.2
20221206030043 16 246 1.0 6.0 0.00 0.00 0.00 70 1016.9
20221206024601 17 263 1.0 4.0 0.00 0.00 0.00 69 1017.0
20221206023031 17 253 3.0 7.0 0.00 0.00 0.00 68 1016.8
20221206021536 18 280 2.0 7.0 0.00 0.00 0.00 66 1016.9
20221206020043 19 0 1.0 8.0 0.00 0.00 0.00 65 1016.8
20221206014535 19 254 3.0 13.0 0.00 0.00 0.00 62 1016.2
20221206013034 20 256 1.0 7.0 0.00 0.00 0.00 58 1016.3
20221206011535 21 262 1.0 7.0 0.00 0.00 0.00 57 1016.3
20221206010036 21 254 3.0 8.0 0.00 0.00 0.00 56 1016.2
20221206004535 21 252 2.0 8.0 0.00 0.00 0.00 55 1016.1
20221206003039 21 265 3.0 10.0 0.00 0.00 0.00 54 1016.1
20221206001537 22 248 5.0 10.0 0.00 0.00 0.00 52 1016.0
20221206000032 23 254 6.0 12.0 0.00 0.00 0.00 51 1015.8
20221205234534 23 250 4.0 12.0 0.00 0.00 0.00 51 1015.6
20221205233036 24 296 4.0 12.0 0.00 0.00 0.00 54 1015.4
20221205231531 24 250 4.0 10.0 0.00 0.00 0.00 57 1015.1
20221205230042 24 238 3.0 6.0 0.00 0.00 0.00 66 1015.0
20221205224527 24 269 1.0 8.0 0.00 0.00 0.00 68 1014.7
20221205223037 24 252 1.0 7.0 0.00 0.00 0.00 71 1014.6
20221205221528 24 261 2.0 7.0 0.00 0.00 0.00 71 1014.3
20221205220026 25 296 3.0 10.0 0.00 0.00 0.00 71 1014.2
20221205214538 25 313 4.0 11.0 0.00 0.00 0.00 69 1014.0
20221205213033 25 233 4.0 15.0 0.00 0.00 0.00 65 1013.7
20221205211534 26 252 4.0 13.0 0.00 0.00 0.00 64 1013.5
20221205210026 27 245 5.0 11.0 0.00 0.00 0.00 60 1013.3
20221205204534 27 239 5.0 11.0 0.00 0.00 0.00 59 1013.0
20221205203040 27 269 2.0 10.0 0.00 0.00 0.00 61 1012.9
20221205201537 27 273 3.0 8.0 0.00 0.00 0.00 60 1012.9
20221205200027 28 261 3.0 11.0 0.00 0.00 0.00 60 1012.6
20221205194541 28 252 5.0 11.0 0.00 0.00 0.00 60 1012.4
20221205193041 28 294 2.0 14.0 0.00 0.00 0.00 62 1012.3
20221205191526 28 249 4.0 10.0 0.00 0.00 0.00 60 1012.3
20221205190036 28 201 3.0 8.0 0.00 0.00 0.00 64 1012.2
20221205184545 28 253 1.0 9.0 0.00 0.00 0.00 64 1012.2
20221205183037 28 0 1.0 9.0 0.00 0.00 0.00 65 1011.9
20221205181538 28 268 2.0 8.0 0.00 0.00 0.00 68 1011.6
20221205180036 28 250 4.0 9.0 0.00 0.00 0.00 67 1011.6
20221205174548 28 272 2.0 9.0 0.00 0.00 0.00 68 1011.6
20221205173036 28 265 5.0 10.0 0.00 0.00 0.00 67 1011.6
20221205171531 28 221 2.0 9.0 0.00 0.00 0.00 69 1011.7
20221205170030 28 257 3.0 8.0 0.00 0.00 0.00 70 1012.0
20221205164526 28 242 2.0 8.0 0.00 0.00 0.00 72 1011.9
20221205163030 27 250 4.0 7.0 0.00 0.00 0.00 73 1012.0
20221205161538 27 268 3.0 9.0 0.00 0.00 0.00 74 1012.0
20221205160029 27 264 3.0 7.0 0.00 0.00 0.00 74 1011.7
20221205154529 27 259 3.0 7.0 0.00 0.00 0.00 74 1011.4
20221205153030 26 251 1.0 7.0 0.00 0.00 0.00 75 1011.3
20221205151528 26 290 1.0 7.0 0.00 0.00 0.00 76 1011.1
20221205150029 26 260 1.0 6.0 0.00 0.00 0.00 76 1011.0
20221205144538 26 261 1.0 6.0 0.00 0.00 0.00 76 1010.4
20221205143041 26 248 3.0 7.0 0.00 0.00 0.00 77 1010.3
20221205141537 26 249 2.0 4.0 0.00 0.00 0.00 77 1010.6
20221205140035 26 266 1.0 6.0 0.00 0.00 0.00 77 1010.1
20221205134531 26 233 2.0 7.0 0.00 0.00 0.00 77 1009.6
20221205133044 26 0 1.0 6.0 0.00 0.00 0.00 77 1009.5
20221205131530 26 266 1.0 6.0 0.00 0.00 0.00 77 1009.1
20221205130036 26 281 4.0 7.0 0.00 0.00 0.00 77 1008.9
20221205124532 26 245 1.0 6.0 0.00 0.00 0.00 76 1008.7
20221205123047 26 0 0.0 5.0 0.00 0.00 0.00 76 1008.3
20221205121532 26 257 2.0 7.0 0.00 0.00 0.00 77 1008.4
20221205120030 26 269 1.0 3.0 0.00 0.00 0.00 78 1008.3
20221205114526 26 0 0.0 3.0 0.00 0.00 0.00 78 1008.1